This is the latest recevied weather packets stored in our database for station/object JA7ZQY-10. If no packets are shown the sender has not sent any weather packets the latest 10 day(s).
| Time | Temp. | Humidity | Pressure | Rain* | Wind** | Luminosity | Snow |
|---|---|---|---|---|---|---|---|
| 1778118291 | 22.78° C | 38% | 1012.7 hPa | 0 mm | - | - | - |
| 1778117691 | 22.78° C | 39% | 1012.8 hPa | 0 mm | - | - | - |
| 1778117092 | 22.78° C | 39% | 1012.9 hPa | 0 mm | - | - | - |
| 1778116491 | 22.78° C | 38% | 1012.8 hPa | 0 mm | - | - | - |
| 1778115890 | 22.22° C | 40% | 1013.1 hPa | 0 mm | - | - | - |
| 1778115291 | 22.78° C | 36% | 1013.1 hPa | 0 mm | - | - | - |
| 1778114691 | 22.22° C | 37% | 1013.2 hPa | 0 mm | - | - | - |
| 1778114090 | 22.22° C | 40% | 1013.2 hPa | 0 mm | - | - | - |
| 1778113491 | 22.22° C | 41% | 1012.8 hPa | 0 mm | - | - | - |
| 1778112891 | 21.67° C | 41% | 1013 hPa | 0 mm | - | - | - |
| 1778112291 | 21.67° C | 41% | 1013.2 hPa | 0 mm | - | - | - |
| 1778111690 | 21.67° C | 41% | 1013 hPa | 0 mm | - | - | - |
| 1778111092 | 21.67° C | 41% | 1013.3 hPa | 0 mm | - | - | - |
| 1778110491 | 21.67° C | 41% | 1013.3 hPa | 0 mm | - | - | - |
| 1778109891 | 21.67° C | 41% | 1013.6 hPa | 0 mm | - | - | - |
| 1778109291 | 21.11° C | 42% | 1013.6 hPa | 0 mm | - | - | - |
| 1778108690 | 21.11° C | 42% | 1013.9 hPa | 0 mm | - | - | - |
| 1778108090 | 20.56° C | 42% | 1013.7 hPa | 0 mm | - | - | - |
| 1778107490 | 20.56° C | 42% | 1013.9 hPa | 0 mm | - | - | - |
| 1778106890 | 20° C | 42% | 1014.1 hPa | 0 mm | - | - | - |
| 1778106290 | 20° C | 43% | 1014.1 hPa | 0 mm | - | - | - |
| 1778105689 | 20° C | 43% | 1014.2 hPa | 0 mm | - | - | - |
| 1778105089 | 19.44° C | 44% | 1014.3 hPa | 0 mm | - | - | - |
| 1778104489 | 18.89° C | 44% | 1014.1 hPa | 0 mm | - | - | - |
| 1778103889 | 18.89° C | 45% | 1014.2 hPa | 0 mm | - | - | - |
* Rain latest hour (hover to see other rain measurements)
** Current wind speed in m/s (hover to see current wind gust speed)